Location: Asheville, NC
(35.6000°N, 82.5500°W)
Time: 16:13:33

XW-2F - Pass Details

Date: 12 January 2018
Orbit: 507 x 527 km, 97.5° (Epoch: 21 March)

Event Time Altitude Azimuth Distance (km) Brightness Sun altitude
Rises 05:35:00 0° 35° (NE) 2,636 ? -24.9°
Reaches altitude 10° 05:38:09 10° 64° (ENE) 1,738 ? -24.3°
Maximum altitude 05:39:55 13° 93° (E) 1,553 ? -23.9°
Drops below altitude 10° 05:41:44 10° 122° (ESE) 1,737 ? -23.6°
Sets 05:44:45 0° 150° (SSE) 2,601 ? -23.0°
